Regional Weather Roundup
Issued by NWS Mt. Holly, NJ

Home | Current Version | Previous Version | Text Only | Print | Product List | Glossary On
Versions: 1 2 3 4 5 6 7 8 9 10 11 12 13 14 15 16 17 18 19 20 21 22 23 24 25 26 27 28
000
ASUS41 KPHI 181112
RWRPHI

REGIONAL WEATHER ROUNDUP
NATIONAL WEATHER SERVICE MOUNT HOLLY NJ
600 AM EST MON DEC 18 2017

NOTE:  "FAIR" INDICATES FEW OR NO CLOUDS BELOW 12,000 FEET WITH NO
SIGNIFICANT WEATHER AND/OR OBSTRUCTIONS TO VISIBILITY.

 * = STATION DOES NOT REPORT PRECIPITATION (E.G. RAIN, SNOW, ETC.)
        OR FOG.

NJZ015>026-181200-
SOUTHERN NEW JERSEY

CITY           SKY/WX    TMP DP  RH WIND       PRES   REMARKS
POMONA         CLOUDY    40  38  93 NW3       30.11R
WILDWOOD*      CLOUDY    41  39  93 CALM      30.13R
MILLVILLE      CLOUDY    39  36  89 CALM      30.12R
WRIGHTSTOWN    CLOUDY    37  35  93 CALM      30.09S
MOUNT HOLLY    CLOUDY    36  34  92 CALM      30.12F
TRENTON        CLOUDY    36  32  85 NE5       30.12S WCI  32

$$
NJZ001>014-181200-
NORTHERN NEW JERSEY

CITY           SKY/WX    TMP DP  RH WIND       PRES   REMARKS
SUSSEX         CLOUDY    29  21  72 CALM      30.12F
ANDOVER*       NOT AVBL
MORRISTOWN     CLOUDY    32  27  80 CALM      30.14S
NEWARK         CLOUDY    34  29  82 N6        30.14F WCI  29
TETERBORO      CLOUDY    33  26  75 N5        30.14S WCI  29
CALDWELL       CLOUDY    33  26  75 NE3       30.14F
SOMERVILLE     CLOUDY    34  28  79 CALM      30.12F
ALLAIRE*       LGT RAIN  40  39  97 N3        30.12F
TOMS RIVER*    CLOUDY    38  36  92 CALM      30.12S

$$
PAZ043-044-047-054-055-060>062-066>071-181200-
EASTERN PENNSYLVANIA

CITY           SKY/WX    TMP DP  RH WIND       PRES   REMARKS
PHILADELPHIA   CLOUDY    39  35  86 CALM      30.13F
NORTH PHILA    CLOUDY    39  34  82 N5        30.14S
BLUE BELL*     CLOUDY    34  32  93 CALM      30.13S
DOYLESTOWN     CLOUDY    34  30  85 N6        30.11S WCI  29
QUAKERTOWN*    CLOUDY    34  32  93 CALM      30.12S
PERKASIE*      CLOUDY    34  32  93 CALM      30.12S
POTTSTOWN      CLOUDY    35  31  85 CALM      30.13S
LANCASTER      CLOUDY    33  31  92 E5        30.10F WCI  29
COATESVILLE    MOCLDY    34  32  93 CALM      30.11S
READING        CLOUDY    34  31  88 N3        30.11S
ALLENTOWN      CLOUDY    36  28  73 SE3       30.12F
MOUNT POCONO   CLOUDY    32  32 100 S7        30.04S FOG     WCI  26
HAZLETON       CLOUDY    32  32 100 SE3       30.08F FOG
LEHIGHTON      CLOUDY    32  30  93 CALM      30.13S
WILKES BARRE   CLOUDY    32  28  85 CALM      30.07F

$$
DEZALL-MDZ008-012-015-019-020-181200-
DELAWARE AND EASTERN MARYLAND

CITY           SKY/WX    TMP DP  RH WIND       PRES   REMARKS
WILMINGTON     CLOUDY    39  34  82 N5        30.12F
DOVER          CLOUDY    38  36  94 N5        30.11S WCI  34
GEORGETOWN     CLOUDY    41  38  89 CALM      30.13R
EASTON         CLEAR     41  36  81 CALM      30.16R
ABERDEEN       CLOUDY    37  34  87 CALM      30.13F
PATUXENT       PTCLDY    34  34 100 CALM      30.12S
OCEAN CITY     CLOUDY    42  38  85 W3        30.13R
WALLOPS ISLAND CLOUDY    43  37  79 SW3       30.14R
CAMBRIDGE      CLOUDY    39  37  93 CALM      30.13R
SALISBURY      CLOUDY    41  38  89 CALM      30.13R

$$
PAZ001-021-NYZ056-072-MDZ011-DCZ001-181200-
OTHER NEARBY LOCATIONS

CITY           SKY/WX    TMP DP  RH WIND       PRES   REMARKS
HARRISBURG     CLOUDY    33  29  85 NW3       30.11S
STATE COLLEGE  PTCLDY    32  30  93 CALM      30.05F
WILLIAMSPORT   CLOUDY    37  28  70 NE3       30.08S
BINGHAMTON     CLOUDY    31  27  85 S6        30.00R WCI  25
NEW YORK CITY  CLOUDY    35  31  85 VRB5      30.15F WCI  31
BALTIMORE      MOCLDY    38  34  85 CALM      30.12R
WASHINGTON DC  CLOUDY    41  35  79 E3        30.13R

$$




USA.gov is the U.S. government's official web portal to all federal, state and local government web resources and services.